Lid_Strength_Index
1 0 -0 -0 -0 -0 -1 -1 -1 8 9 10 7 8 7 8 8 7 8 8 7 8 10 13 12 13 15 14
1 0 0 0 0 -0 -0 -0 2 8 10 7 7 8 8 7 7 8 8 7 7 9 10 11 11 13 13 15
1 1 1 0 0 1 1 1 8 9 11 5 9 8 8 8 7 8 8 8 9 11 12 12 14 14 15 15
2 1 1 1 1 3 6 8 8 10 9 10 9 9 9 8 9 8 9 11 12 14 15 15 16 16 16 15
2 1 5 6 10 10 10 11 11 11 11 9 9 10 10 9 9 11 13 13 15 17 16 15 15 16 16 16
2 3 7 9 11 9 12 10 11 11 9 10 11 10 9 12 12 14 13 14 17 15 15 15 15 16 17 17
3 6 7 7 6 8 11 11 10 10 10 10 12 12 10 12 14 15 16 16 15 14 14 17 17 16 16 17
6 8 7 6 6 8 14 13 11 10 10 10 12 11 11 11 13 15 16 16 15 16 16 17 17 17 16 17
7 9 7 6 6 8 18 12 11 9 10 11 12 11 11 12 15 15 14 16 16 17 17 17 16 17 16 16
7 7 6 7 7 13 17 13 11 12 12 12 13 12 13 12 13 14 15 16 14 15 16 16 16 16 16 16
8 7 7 8 13 15 13 14 14 12 13 14 14 15 16 17 17 16 17 15 16 15 16 17 16 18 18 19
8 7 9 11 16 14 15 13 13 13 14 14 15 16 16 17 17 17 18 18 17 17 16 18 19 19 19 20
8 8 11 15 15 14 13 13 13 15 15 14 15 16 18 18 17 17 17 18 18 16 17 17 18 19 20 19
8 8 12 14 13 12 13 13 15 14 16 15 16 16 17 17 16 15 16 18 18 17 16 16 17 18 18 20
9 10 14 15 13 12 13 14 14 15 15 16 16 17 17 16 16 16 16 18 17 18 17 19 20 19 20 21
12 16 14 13 11 14 13 13 13 14 15 16 16 17 17 17 15 15 17 17 18 19 19 18 18 19 20 21
14 16 15 15 14 14 15 14 14 13 14 16 17 17 17 15 15 17 17 17 19 19 19 19 18 19 20 21